Tracking 28125 objects as of 3-Oct-2023
HD Live streaming from Space Station
objects crossing your sky now

STARLINK-3192

Track STARLINK-3192 now!
10-day predictions
STARLINK-3192 is classified as:


NORAD ID: 49767
Int'l Code: 2021-115AV
Perigee: 545.9 km
Apogee: 547.8 km
Inclination: 53.2 °
Period: 95.4 minutes
Semi major axis: 6917 km
RCS: Unknown
Launch date: December 2, 2021
Source: United States (US)
Launch site: AIR FORCE EASTERN TEST RANGE (AFETR)
Your satellite tracking list
Your tracking list is empty




NASA's NSSDC Master Catalog

Two Line Element Set (TLE):
1 49767U 21115AV  23276.10228446  .00003780  00000-0  25542-3 0  9999
2 49767  53.2155 168.1428 0001406  96.1281 263.9871 15.08849168102643
Source of the keplerian elements: AFSPC